Powrót do katalogu

FENGYUN 1C DEB

LostSSO
NORAD 30955·DEBRIS·🇨🇳 China

Wystrzelony May 10, 1999 z Taiyuan Satellite Launch Center

Loading…

Następne Przeloty (najbliższe 24 godziny)

TLE

NieaktualneSource: Space-Track

Epoka: Sep 12, 2022, 10:26 UTC

1 30955U 99025BAV 22255.43495679  .00002745  00000-0  14499-2 0  9997
2 30955  98.6925 124.6845 0049640 274.7218  84.8287 14.14006339796221

Śledź FENGYUN 1C DEB w czasie rzeczywistym z AllMySat

Download on the App Store